• In Russia
  • List of Countries
  • For 7 days
  • Water Temperature
  • Satellite Maps
  • Weather Map
  • Weather Widgets
  • user-avatar
    Login

    Hourly Weather Darwin

    Today, 22 January, Sunday

    Time Temperature Precipitation Wind Pressure Humidity
    00:00 +29°C° 0.1 mm 3 mps 757 mmHg 82%
    01:00 +28°C° 0.2 mm 3 mps 756 mmHg 82%
    02:00 +28°C° 0.2 mm 3 mps 756 mmHg 83%
    03:00 +28°C° 0 mm 3 mps 756 mmHg 84%
    04:00 +28°C° 0.3 mm 3 mps 756 mmHg 84%
    05:00 +28°C° 0.3 mm 4 mps 756 mmHg 84%
    06:00 +28°C° 0.3 mm 4 mps 756 mmHg 84%
    07:00 +29°C° 0 mm 5 mps 756 mmHg 77%
    08:00 +32°C° 0 mm 5 mps 757 mmHg 70%
    09:00 +34°C° 0 mm 5 mps 757 mmHg 62%
    10:00 +35°C° 0.3 mm 5 mps 756 mmHg 60%
    11:00 +36°C° 0.3 mm 5 mps 756 mmHg 58%
    12:00 +36°C° 0.3 mm 6 mps 755 mmHg 56%
    13:00 +36°C° 0.6 mm 6 mps 755 mmHg 57%
    14:00 +36°C° 0.6 mm 6 mps 755 mmHg 58%
    15:00 +36°C° 0 mm 6 mps 754 mmHg 60%
    16:00 +35°C° 0.1 mm 6 mps 754 mmHg 63%
    17:00 +34°C° 0.1 mm 6 mps 754 mmHg 66%
    18:00 +33°C° 0.1 mm 6 mps 754 mmHg 69%
    19:00 +33°C° 0.1 mm 6 mps 755 mmHg 72%
    20:00 +32°C° 0.1 mm 5 mps 755 mmHg 75%
    21:00 +30°C° 0.1 mm 5 mps 755 mmHg 78%
    22:00 +30°C° 0.4 mm 5 mps 755 mmHg 78%
    23:00 +30°C° 0.4 mm 5 mps 755 mmHg 78%

    Tomorrow, 23 January, Monday

    Time Temperature Precipitation Wind Pressure Humidity
    00:00 +30°C° 0.4 mm 5 mps 755 mmHg 79%
    01:00 +30°C° 0.2 mm 5 mps 755 mmHg 79%
    02:00 +29°C° 0.2 mm 5 mps 755 mmHg 79%
    03:00 +29°C° 0.2 mm 5 mps 754 mmHg 79%
    04:00 +29°C° 0.3 mm 5 mps 754 mmHg 79%
    05:00 +29°C° 0.3 mm 5 mps 754 mmHg 79%
    06:00 +29°C° 0.3 mm 5 mps 754 mmHg 78%
    07:00 +30°C° 0 mm 5 mps 755 mmHg 74%
    08:00 +32°C° 0 mm 5 mps 755 mmHg 70%
    09:00 +33°C° 0 mm 5 mps 755 mmHg 66%
    10:00 +34°C° 0 mm 5 mps 755 mmHg 61%
    11:00 +36°C° 0 mm 6 mps 755 mmHg 56%
    12:00 +38°C° 0 mm 6 mps 754 mmHg 52%
    13:00 +36°C° 0.4 mm 6 mps 754 mmHg 53%
    14:00 +36°C° 0.4 mm 6 mps 753 mmHg 54%
    15:00 +36°C° 0.4 mm 7 mps 753 mmHg 56%
    16:00 +35°C° 0.3 mm 7 mps 753 mmHg 59%
    17:00 +34°C° 0.3 mm 7 mps 753 mmHg 63%
    18:00 +33°C° 0.3 mm 7 mps 753 mmHg 66%
    19:00 +32°C° 0.5 mm 6 mps 754 mmHg 68%
    20:00 +32°C° 0.5 mm 6 mps 754 mmHg 70%
    21:00 +30°C° 0.5 mm 6 mps 755 mmHg 72%
    22:00 +30°C° 1.3 mm 6 mps 755 mmHg 73%
    23:00 +30°C° 1.3 mm 5 mps 755 mmHg 75%

    Day after tomorrow, 24 January, Tuesday

    Time Temperature Precipitation Wind Pressure Humidity
    00:00 +29°C° 1.3 mm 5 mps 755 mmHg 76%
    01:00 +29°C° 2.5 mm 6 mps 755 mmHg 79%
    02:00 +28°C° 2.5 mm 6 mps 754 mmHg 83%
    03:00 +28°C° 2.5 mm 6 mps 754 mmHg 87%
    04:00 +28°C° 3 mm 6 mps 754 mmHg 88%
    05:00 +28°C° 3 mm 6 mps 754 mmHg 89%
    06:00 +28°C° 3 mm 6 mps 754 mmHg 90%
    07:00 +29°C° 1.8 mm 6 mps 754 mmHg 86%
    08:00 +30°C° 1.8 mm 6 mps 755 mmHg 81%
    09:00 +32°C° 1.8 mm 6 mps 755 mmHg 76%
    10:00 +33°C° 1.7 mm 6 mps 755 mmHg 75%
    11:00 +33°C° 1.7 mm 7 mps 755 mmHg 74%
    12:00 +33°C° 1.7 mm 7 mps 754 mmHg 73%
    13:00 +34°C° 1.7 mm 7 mps 754 mmHg 71%
    14:00 +34°C° 1.7 mm 7 mps 753 mmHg 69%
    15:00 +34°C° 1.7 mm 7 mps 753 mmHg 68%
    16:00 +33°C° 1.7 mm 7 mps 753 mmHg 71%
    17:00 +32°C° 1.7 mm 6 mps 753 mmHg 74%
    18:00 +32°C° 1.7 mm 6 mps 753 mmHg 77%
    19:00 +30°C° 1.7 mm 6 mps 754 mmHg 78%
    20:00 +30°C° 1.7 mm 6 mps 754 mmHg 79%
    21:00 +29°C° 1.7 mm 6 mps 755 mmHg 80%
    22:00 +29°C° 1.2 mm 6 mps 755 mmHg 82%
    23:00 +29°C° 1.2 mm 6 mps 755 mmHg 83%

    25 January, Wednesday

    Time Temperature Precipitation Wind Pressure Humidity
    00:00 +28°C° 1.2 mm 6 mps 755 mmHg 85%
    01:00 +28°C° 2.6 mm 6 mps 754 mmHg 86%
    02:00 +28°C° 2.6 mm 6 mps 754 mmHg 87%
    03:00 +28°C° 2.6 mm 7 mps 753 mmHg 88%
    04:00 +28°C° 1.7 mm 6 mps 754 mmHg 88%
    05:00 +28°C° 1.7 mm 6 mps 754 mmHg 88%
    06:00 +28°C° 1.7 mm 6 mps 754 mmHg 89%
    07:00 +28°C° 0.9 mm 6 mps 754 mmHg 86%
    08:00 +29°C° 0.9 mm 6 mps 754 mmHg 83%
    09:00 +30°C° 0.9 mm 6 mps 755 mmHg 81%
    10:00 +32°C° 0.7 mm 6 mps 754 mmHg 73%
    11:00 +34°C° 0.7 mm 6 mps 754 mmHg 66%
    12:00 +35°C° 0.7 mm 6 mps 753 mmHg 59%
    13:00 +35°C° 0.7 mm 6 mps 753 mmHg 62%
    14:00 +34°C° 0.7 mm 6 mps 752 mmHg 65%
    15:00 +34°C° 0.7 mm 6 mps 751 mmHg 68%
    16:00 +33°C° 1.1 mm 6 mps 752 mmHg 73%
    17:00 +32°C° 1.1 mm 6 mps 752 mmHg 78%
    18:00 +30°C° 1.1 mm 6 mps 752 mmHg 83%
    19:00 +29°C° 0.9 mm 6 mps 752 mmHg 84%
    20:00 +29°C° 0.9 mm 5 mps 753 mmHg 86%
    21:00 +28°C° 0.9 mm 5 mps 753 mmHg 87%
    22:00 +28°C° 0.6 mm 5 mps 753 mmHg 87%
    23:00 +28°C° 0.6 mm 6 mps 753 mmHg 87%

    26 January, Thursday

    Time Temperature Precipitation Wind Pressure Humidity
    00:00 +28°C° 0.6 mm 6 mps 752 mmHg 86%
    01:00 +28°C° 0.8 mm 6 mps 752 mmHg 86%
    02:00 +28°C° 0.8 mm 6 mps 751 mmHg 86%
    03:00 +28°C° 0.8 mm 6 mps 751 mmHg 86%
    04:00 +28°C° 1 mm 6 mps 751 mmHg 87%
    05:00 +28°C° 1 mm 6 mps 751 mmHg 88%
    06:00 +28°C° 1 mm 6 mps 751 mmHg 89%
    07:00 +29°C° 1.3 mm 6 mps 751 mmHg 85%
    08:00 +30°C° 1.3 mm 6 mps 752 mmHg 82%
    09:00 +32°C° 1.3 mm 7 mps 752 mmHg 79%
    10:00 +32°C° 2.1 mm 7 mps 752 mmHg 79%
    11:00 +32°C° 2.1 mm 8 mps 751 mmHg 79%
    12:00 +32°C° 2.1 mm 8 mps 751 mmHg 80%
    13:00 +32°C° 1.8 mm 8 mps 750 mmHg 82%
    14:00 +32°C° 1.8 mm 8 mps 750 mmHg 83%
    15:00 +31°C° 1.8 mm 9 mps 749 mmHg 85%
    16:00 +31°C° 1.3 mm 8 mps 749 mmHg 87%
    17:00 +29°C° 1.3 mm 7 mps 750 mmHg 89%
    18:00 +29°C° 1.3 mm 7 mps 750 mmHg 91%
    19:00 +29°C° 2.4 mm 7 mps 750 mmHg 92%
    20:00 +28°C° 2.4 mm 6 mps 751 mmHg 92%
    21:00 +28°C° 2.4 mm 6 mps 751 mmHg 93%
    22:00 +28°C° 2.6 mm 7 mps 751 mmHg 93%
    23:00 +28°C° 2.6 mm 7 mps 751 mmHg 92%

    27 January, Friday

    Time Temperature Precipitation Wind Pressure Humidity
    00:00 +28°C° 2.6 mm 7 mps 751 mmHg 92%
    01:00 +28°C° 2.5 mm 7 mps 750 mmHg 92%
    02:00 +28°C° 2.5 mm 7 mps 750 mmHg 92%
    03:00 +28°C° 2.5 mm 7 mps 749 mmHg 92%
    04:00 +28°C° 2.3 mm 7 mps 750 mmHg 92%
    05:00 +28°C° 2.3 mm 7 mps 750 mmHg 92%
    06:00 +28°C° 2.3 mm 7 mps 750 mmHg 91%
    07:00 +29°C° 2.1 mm 7 mps 751 mmHg 89%
    08:00 +29°C° 2.1 mm 7 mps 751 mmHg 87%
    09:00 +30°C° 2.1 mm 7 mps 752 mmHg 85%
    10:00 +32°C° 2.4 mm 7 mps 751 mmHg 83%
    11:00 +32°C° 2.4 mm 8 mps 751 mmHg 82%
    12:00 +32°C° 2.4 mm 8 mps 751 mmHg 80%
    13:00 +32°C° 2.7 mm 8 mps 751 mmHg 80%
    14:00 +32°C° 2.7 mm 8 mps 750 mmHg 80%
    15:00 +32°C° 2.7 mm 8 mps 750 mmHg 81%
    16:00 +32°C° 2.6 mm 8 mps 750 mmHg 83%
    17:00 +30°C° 2.6 mm 7 mps 751 mmHg 85%
    18:00 +29°C° 2.6 mm 7 mps 751 mmHg 88%
    19:00 +29°C° 3.1 mm 7 mps 752 mmHg 89%
    20:00 +28°C° 3.1 mm 7 mps 752 mmHg 90%
    21:00 +28°C° 3.1 mm 7 mps 753 mmHg 91%
    22:00 +28°C° 2.3 mm 7 mps 753 mmHg 91%
    23:00 +28°C° 2.3 mm 7 mps 753 mmHg 91%
    Show more